Temp
-11 -11 -11 -10 -10 -10 -10 -10 -10 -9 -10 -10 -10 -10 -10 -10 -9 -9 -9 -9 -8 -8 -8 -8 -8 -8 -7 -7 -7 -7 -7 -7 -7 -7 -7 -7 -7 -7 -7 -7 -7 -7 -7 -7 -8 -8 -8
-11 -11 -11 -11 -11 -10 -10 -10 -10 -10 -10 -10 -10 -10 -10 -10 -10 -10 -9 -9 -9 -9 -8 -8 -8 -8 -8 -7 -7 -7 -8 -7 -7 -7 -7 -7 -7 -7 -7 -7 -7 -7 -7 -7 -8 -8 -8
-11 -11 -11 -11 -11 -11 -11 -11 -10 -10 -10 -10 -10 -10 -10 -10 -10 -10 -10 -9 -9 -9 -9 -9 -8 -8 -7 -8 -7 -7 -7 -7 -7 -7 -7 -7 -7 -7 -7 -7 -7 -7 -7 -7 -8 -8 -8
-11 -11 -11 -11 -11 -11 -11 -11 -11 -11 -11 -10 -10 -10 -10 -10 -10 -10 -10 -10 -10 -10 -10 -9 -9 -8 -7 -8 -8 -7 -7 -7 -7 -7 -7 -7 -7 -7 -7 -7 -7 -7 -7 -8 -7 -8 -8
-12 -12 -12 -12 -12 -11 -11 -11 -11 -11 -11 -11 -11 -11 -11 -10 -10 -10 -10 -10 -10 -10 -10 -10 -10 -8 -8 -8 -8 -8 -7 -7 -7 -7 -8 -7 -7 -7 -7 -7 -8 -8 -8 -8 -7 -9 -10
-13 -13 -12 -12 -12 -11 -11 -11 -11 -11 -11 -11 -11 -11 -11 -11 -11 -10 -10 -10 -10 -10 -10 -10 -11 -9 -9 -9 -8 -8 -8 -8 -7 -7 -7 -8 -7 -7 -8 -8 -8 -8 -8 -9 -9 -11 -11
-14 -13 -13 -13 -12 -12 -12 -12 -12 -11 -11 -11 -11 -11 -11 -11 -11 -11 -11 -10 -11 -10 -10 -10 -10 -10 -10 -9 -9 -9 -9 -8 -8 -8 -7 -8 -7 -8 -8 -8 -8 -8 -9 -9 -9 -10 -10
-14 -14 -14 -13 -13 -13 -12 -12 -12 -12 -12 -12 -11 -12 -11 -12 -12 -11 -11 -11 -11 -10 -10 -10 -10 -9 -10 -11 -9 -9 -9 -9 -9 -8 -8 -8 -7 -8 -8 -8 -8 -9 -9 -10 -10 -10 -11
-14 -14 -14 -14 -14 -13 -13 -13 -12 -12 -12 -12 -12 -12 -12 -12 -12 -12 -12 -12 -12 -11 -10 -10 -11 -9 -10 -10 -9 -9 -10 -9 -9 -9 -9 -8 -8 -9 -9 -8 -8 -9 -9 -10 -11 -10 -10
-14 -14 -14 -14 -14 -14 -14 -13 -13 -13 -12 -12 -12 -13 -12 -12 -12 -12 -12 -13 -12 -11 -11 -9 -11 -9 -9 -10 -8 -9 -10 -10 -9 -9 -9 -9 -9 -9 -9 -9 -9 -9 -10 -10 -11 -11 -11
-15 -15 -14 -14 -14 -14 -14 -14 -14 -14 -13 -13 -12 -12 -13 -12 -12 -12 -13 -12 -13 -13 -12 -11 -10 -10 -10 -10 -10 -9 -10 -10 -9 -9 -10 -9 -9 -10 -9 -9 -9 -10 -11 -11 -11 -11 -11
-16 -16 -16 -15 -15 -15 -15 -15 -15 -15 -14 -13 -13 -13 -13 -12 -12 -13 -13 -13 -13 -13 -12 -11 -11 -10 -10 -10 -10 -10 -9 -10 -10 -10 -10 -9 -10 -10 -10 -10 -10 -11 -11 -12 -12 -12 -12
-16 -16 -16 -16 -16 -16 -15 -15 -15 -15 -15 -15 -15 -14 -14 -13 -12 -14 -13 -13 -14 -13 -12 -12 -12 -11 -11 -10 -10 -10 -10 -9 -10 -10 -9 -10 -10 -11 -11 -11 -11 -11 -12 -12 -12 -12 -12
-16 -16 -16 -15 -15 -15 -15 -15 -15 -14 -15 -15 -15 -15 -15 -14 -14 -14 -14 -15 -15 -12 -12 -13 -12 -12 -11 -11 -10 -11 -11 -9 -10 -10 -10 -10 -10 -11 -12 -11 -12 -13 -13 -13 -12 -12 -13
-17 -16 -16 -16 -15 -15 -14 -14 -14 -14 -14 -14 -15 -15 -16 -15 -14 -15 -15 -15 -13 -12 -12 -13 -13 -12 -11 -11 -11 -10 -10 -10 -9 -11 -10 -11 -10 -11 -11 -12 -13 -13 -12 -13 -14 -14 -13
-18 -17 -16 -16 -15 -15 -15 -14 -14 -14 -13 -13 -16 -16 -17 -16 -16 -16 -16 -15 -13 -13 -13 -13 -13 -12 -12 -11 -11 -11 -11 -10 -11 -11 -11 -12 -11 -12 -12 -13 -14 -13 -14 -13 -14 -14 -14
-19 -19 -18 -18 -18 -17 -16 -16 -15 -15 -14 -14 -15 -18 -18 -17 -16 -18 -17 -15 -13 -13 -13 -14 -13 -13 -12 -12 -12 -12 -11 -11 -11 -11 -12 -14 -12 -12 -13 -13 -13 -12 -13 -13 -13 -14 -14
-21 -20 -20 -20 -21 -21 -21 -20 -20 -19 -19 -18 -18 -19 -18 -17 -16 -15 -17 -14 -13 -13 -13 -13 -13 -13 -12 -12 -11 -11 -11 -12 -11 -12 -12 -13 -13 -12 -13 -13 -14 -14 -14 -15 -14 -14 -14
-23 -23 -24 -25 -25 -25 -24 -23 -23 -23 -22 -22 -22 -19 -19 -18 -18 -17 -16 -15 -14 -13 -13 -13 -13 -13 -12 -12 -11 -12 -12 -11 -11 -13 -13 -13 -12 -12 -13 -14 -13 -14 -13 -14 -14 -13 -13
-27 -26 -26 -26 -26 -25 -26 -26 -26 -25 -25 -24 -23 -22 -20 -19 -17 -17 -16 -16 -14 -13 -13 -13 -13 -13 -13 -12 -11 -12 -12 -11 -13 -13 -13 -14 -13 -13 -13 -13 -13 -13 -13 -14 -14 -13 -13
-27 -27 -27 -27 -27 -27 -28 -27 -27 -27 -25 -24 -23 -23 -20 -18 -18 -16 -17 -15 -15 -15 -13 -14 -15 -13 -13 -12 -12 -12 -13 -12 -14 -13 -14 -14 -14 -13 -13 -13 -13 -13 -13 -13 -13 -14 -13
-28 -28 -28 -28 -28 -28 -28 -27 -26 -26 -25 -24 -23 -22 -20 -19 -18 -18 -18 -16 -15 -14 -14 -14 -14 -14 -13 -12 -13 -13 -12 -12 -13 -13 -14 -14 -14 -13 -13 -13 -13 -13 -13 -13 -13 -13 -13
-29 -29 -29 -29 -28 -28 -28 -27 -26 -25 -25 -24 -23 -22 -20 -18 -18 -18 -17 -16 -15 -15 -14 -15 -14 -14 -14 -13 -14 -13 -12 -13 -13 -14 -14 -14 -14 -14 -13 -13 -13 -13 -13 -13 -14 -13 -14
-30 -29 -29 -29 -28 -28 -28 -27 -26 -25 -24 -23 -22 -21 -20 -18 -18 -17 -17 -16 -16 -15 -14 -15 -15 -15 -14 -14 -14 -14 -14 -14 -14 -14 -14 -14 -14 -14 -14 -14 -13 -13 -14 -14 -14 -13 -14
-30 -30 -29 -29 -28 -28 -27 -27 -26 -25 -24 -23 -22 -21 -21 -18 -17 -18 -17 -16 -15 -15 -16 -17 -16 -15 -15 -14 -14 -14 -14 -14 -14 -14 -14 -14 -15 -14 -14 -13 -14 -14 -13 -14 -14 -14 -14
-30 -30 -30 -29 -28 -28 -27 -27 -26 -26 -25 -23 -21 -22 -20 -19 -19 -18 -17 -16 -16 -15 -17 -16 -16 -15 -15 -15 -14 -14 -14 -13 -14 -14 -14 -14 -14 -14 -14 -14 -14 -14 -14 -14 -14 -14 -14
-31 -30 -30 -29 -28 -27 -27 -27 -26 -25 -25 -23 -21 -21 -21 -19 -18 -18 -17 -17 -16 -16 -16 -16 -16 -16 -15 -14 -14 -14 -14 -14 -14 -14 -15 -15 -15 -14 -14 -13 -13 -13 -13 -14 -14 -14 -14
-31 -30 -30 -29 -29 -28 -27 -27 -26 -25 -24 -23 -21 -21 -19 -19 -19 -18 -17 -17 -17 -16 -17 -16 -15 -15 -15 -15 -15 -15 -14 -14 -14 -14 -15 -16 -15 -15 -14 -14 -14 -14 -14 -14 -14 -14 -14
-30 -30 -30 -29 -29 -28 -28 -27 -26 -25 -24 -24 -22 -20 -20 -19 -19 -18 -18 -18 -17 -17 -17 -16 -16 -15 -14 -14 -14 -14 -14 -14 -15 -15 -15 -15 -14 -15 -15 -14 -15 -15 -14 -14 -14 -14 -14
Height
5824 5827 5831 5834 5838 5842 5846 5850 5852 5856 5859 5862 5866 5867 5871 5875 5878 5881 5884 5887 5889 5892 5894 5897 5900 5902 5903 5904 5907 5911 5911 5911 5912 5913 5914 5915 5916 5916 5916 5916 5916 5914 5914 5912 5913 5910 5907
5815 5819 5823 5827 5831 5835 5838 5841 5845 5849 5851 5855 5858 5861 5864 5867 5871 5874 5877 5880 5883 5886 5888 5890 5893 5896 5898 5902 5902 5907 5905 5907 5909 5909 5909 5910 5911 5911 5913 5912 5913 5910 5910 5908 5904 5904 5901
5806 5811 5815 5819 5823 5826 5830 5834 5837 5841 5845 5848 5852 5853 5857 5860 5862 5865 5869 5873 5876 5878 5881 5883 5886 5889 5893 5898 5896 5903 5900 5901 5903 5905 5905 5906 5904 5906 5908 5908 5907 5907 5906 5903 5901 5899 5894
5795 5800 5804 5809 5813 5817 5821 5824 5829 5833 5837 5841 5842 5845 5849 5853 5855 5858 5861 5864 5867 5870 5872 5875 5878 5880 5887 5889 5890 5895 5895 5898 5898 5899 5900 5901 5900 5902 5903 5903 5904 5902 5900 5898 5893 5891 5886
5783 5788 5792 5797 5802 5807 5810 5815 5820 5823 5827 5831 5835 5838 5841 5844 5847 5850 5854 5854 5858 5861 5863 5865 5869 5870 5880 5881 5883 5886 5893 5892 5891 5894 5893 5896 5896 5897 5897 5897 5898 5895 5896 5894 5886 5883 5882
5770 5775 5781 5785 5790 5795 5799 5804 5809 5813 5817 5822 5826 5830 5832 5835 5839 5840 5844 5846 5848 5850 5853 5857 5860 5862 5868 5873 5874 5882 5883 5884 5885 5888 5890 5890 5889 5892 5894 5889 5891 5891 5889 5887 5882 5881 5877
5753 5760 5766 5772 5778 5783 5787 5792 5797 5802 5807 5812 5815 5819 5823 5825 5827 5831 5837 5839 5839 5839 5846 5848 5850 5854 5856 5861 5863 5871 5872 5874 5876 5879 5884 5882 5882 5888 5886 5883 5883 5888 5885 5884 5880 5878 5876
5735 5741 5748 5756 5762 5769 5775 5780 5785 5790 5795 5800 5805 5809 5813 5816 5820 5823 5827 5829 5826 5831 5837 5837 5840 5842 5848 5846 5851 5859 5862 5865 5868 5869 5872 5875 5874 5879 5878 5877 5877 5879 5880 5882 5877 5877 5875
5720 5725 5730 5738 5745 5752 5759 5765 5772 5777 5782 5788 5793 5798 5803 5806 5811 5814 5816 5820 5816 5821 5822 5834 5832 5834 5836 5835 5837 5847 5849 5852 5857 5861 5862 5863 5870 5867 5868 5869 5869 5872 5872 5874 5874 5870 5869
5703 5709 5714 5720 5726 5733 5740 5748 5755 5763 5769 5774 5780 5785 5790 5796 5803 5805 5809 5809 5808 5811 5811 5824 5826 5831 5831 5830 5831 5835 5839 5841 5841 5848 5850 5852 5857 5860 5858 5858 5860 5863 5865 5863 5866 5862 5862
5685 5691 5697 5702 5709 5715 5723 5730 5737 5744 5754 5761 5766 5771 5775 5783 5791 5796 5797 5797 5801 5802 5800 5815 5814 5819 5823 5825 5827 5825 5826 5829 5829 5836 5840 5842 5846 5847 5846 5850 5851 5853 5856 5855 5855 5856 5855
5667 5672 5677 5683 5690 5697 5704 5710 5719 5727 5735 5744 5751 5757 5762 5770 5780 5783 5785 5788 5790 5792 5796 5803 5803 5810 5815 5818 5820 5819 5817 5819 5822 5822 5825 5829 5834 5835 5839 5839 5839 5847 5845 5846 5847 5845 5844
5644 5650 5655 5660 5667 5675 5682 5690 5698 5707 5715 5723 5733 5739 5745 5755 5775 5763 5771 5773 5776 5776 5795 5798 5795 5800 5805 5807 5810 5810 5810 5810 5812 5812 5815 5821 5822 5829 5829 5827 5829 5835 5837 5835 5838 5836 5838
5621 5626 5631 5637 5643 5649 5658 5667 5676 5685 5695 5703 5710 5717 5724 5739 5755 5749 5755 5755 5755 5775 5786 5787 5788 5788 5794 5800 5799 5802 5802 5801 5802 5804 5805 5808 5812 5817 5823 5821 5822 5824 5826 5827 5829 5829 5830
5597 5602 5606 5612 5617 5622 5629 5639 5649 5661 5674 5681 5682 5692 5698 5721 5738 5730 5733 5728 5744 5766 5776 5779 5778 5780 5784 5787 5791 5792 5794 5794 5792 5797 5798 5799 5800 5809 5809 5812 5813 5819 5814 5821 5819 5822 5819
5569 5573 5577 5582 5587 5592 5598 5606 5616 5632 5646 5655 5652 5662 5672 5703 5715 5706 5705 5709 5737 5757 5763 5765 5768 5772 5778 5778 5779 5783 5784 5785 5787 5787 5787 5791 5790 5797 5800 5800 5801 5807 5812 5812 5812 5813 5813
5545 5548 5551 5554 5558 5563 5569 5577 5585 5595 5608 5617 5623 5627 5655 5683 5688 5672 5675 5692 5728 5741 5747 5749 5759 5763 5768 5771 5771 5773 5776 5778 5778 5777 5777 5780 5783 5789 5789 5791 5795 5801 5803 5802 5806 5808 5809
5523 5526 5530 5532 5535 5541 5545 5550 5555 5564 5572 5576 5589 5594 5641 5661 5660 5649 5657 5687 5713 5721 5732 5738 5745 5752 5757 5760 5763 5765 5767 5770 5769 5770 5774 5776 5775 5778 5784 5784 5791 5793 5796 5797 5798 5802 5802
5500 5505 5508 5513 5517 5522 5526 5531 5535 5540 5546 5558 5561 5581 5611 5631 5631 5634 5649 5673 5691 5701 5718 5725 5735 5740 5748 5751 5755 5756 5759 5758 5762 5765 5767 5769 5771 5774 5779 5780 5785 5785 5788 5789 5792 5796 5797
5482 5488 5493 5497 5501 5504 5507 5512 5517 5523 5532 5546 5552 5567 5588 5607 5619 5622 5636 5658 5672 5688 5699 5712 5722 5727 5735 5741 5745 5746 5748 5750 5756 5757 5761 5765 5764 5769 5771 5778 5776 5781 5782 5785 5785 5788 5792
5470 5474 5479 5483 5486 5489 5493 5498 5504 5511 5524 5533 5539 5551 5572 5582 5597 5604 5621 5643 5660 5670 5689 5697 5705 5717 5726 5731 5735 5737 5739 5743 5746 5749 5755 5758 5758 5763 5766 5771 5770 5775 5777 5777 5779 5783 5785
5456 5461 5465 5469 5473 5478 5482 5486 5492 5503 5512 5518 5530 5547 5566 5575 5583 5598 5611 5624 5642 5664 5672 5686 5695 5708 5714 5719 5726 5730 5728 5733 5738 5743 5746 5749 5754 5753 5761 5764 5766 5769 5770 5773 5776 5777 5779
5445 5449 5453 5458 5463 5467 5472 5477 5483 5494 5501 5507 5524 5542 5547 5566 5577 5584 5599 5620 5640 5652 5660 5678 5688 5695 5702 5714 5716 5720 5725 5727 5732 5737 5739 5744 5747 5749 5754 5757 5758 5757 5765 5766 5768 5769 5774
5434 5439 5443 5448 5453 5457 5462 5467 5475 5483 5494 5506 5519 5534 5550 5554 5565 5578 5592 5614 5625 5640 5656 5663 5670 5682 5694 5698 5703 5709 5715 5720 5726 5728 5730 5735 5738 5741 5745 5748 5749 5760 5757 5760 5762 5764 5766
5424 5428 5433 5438 5444 5448 5453 5459 5466 5472 5481 5493 5512 5520 5533 5543 5556 5570 5585 5599 5614 5625 5636 5649 5663 5674 5680 5687 5691 5698 5703 5710 5717 5721 5725 5728 5732 5734 5737 5740 5744 5749 5753 5755 5755 5759 5760
5415 5419 5423 5429 5435 5440 5444 5451 5457 5464 5474 5488 5504 5520 5531 5542 5549 5567 5577 5591 5599 5610 5627 5636 5652 5661 5669 5674 5680 5687 5692 5699 5707 5712 5716 5721 5724 5727 5731 5733 5737 5744 5746 5748 5750 5752 5752
5405 5409 5414 5421 5426 5431 5437 5443 5449 5458 5470 5480 5500 5516 5529 5538 5545 5554 5567 5580 5590 5602 5617 5630 5639 5649 5658 5664 5670 5677 5684 5692 5697 5705 5709 5714 5718 5721 5726 5727 5731 5736 5740 5742 5742 5749 5744
5397 5400 5405 5412 5417 5422 5430 5436 5442 5449 5460 5471 5489 5503 5515 5527 5538 5548 5562 5570 5579 5589 5603 5621 5630 5636 5647 5653 5662 5670 5676 5683 5690 5698 5701 5707 5711 5714 5717 5720 5727 5727 5734 5735 5736 5736 5739
5389 5392 5396 5403 5410 5413 5420 5426 5434 5443 5454 5465 5482 5496 5507 5517 5533 5543 5554 5561 5572 5583 5599 5608 5622 5629 5635 5644 5654 5662 5668 5674 5682 5688 5694 5698 5703 5710 5713 5719 5720 5720 5724 5726 5728 5730 5730
Wind_Speed
33 33 35 35 35 37 39 42 38 35 33 35 34 34 36 41 39 38 36 34 35 34 32 31 32 32 32 30 28 23 23 24 22 21 20 20 20 19 19 20 19 20 21 24 22 23 25
37 35 35 36 36 38 39 38 39 43 41 40 38 37 33 36 40 41 41 39 36 37 37 36 35 35 35 32 32 26 27 26 24 24 22 22 23 22 21 22 20 23 25 26 29 27 31
42 42 40 40 39 38 37 39 39 39 39 40 42 41 41 36 37 39 40 44 42 40 40 40 38 39 37 33 37 29 33 30 27 27 27 25 27 26 24 24 23 23 27 30 30 31 29
45 44 44 45 45 43 41 39 39 39 40 41 39 38 41 44 39 40 35 36 43 46 45 44 44 42 39 40 39 36 37 32 32 30 29 29 30 27 28 27 25 27 31 32 39 35 38
49 48 47 47 47 48 47 45 44 43 41 41 41 41 41 40 43 41 44 39 37 36 41 46 48 50 42 43 43 42 36 37 38 33 34 32 32 30 30 30 27 31 31 32 40 33 32
53 53 53 52 51 50 49 48 48 47 47 45 44 42 42 43 44 41 43 45 45 45 47 45 46 54 50 46 48 42 41 41 41 37 35 33 36 33 30 37 33 29 32 30 32 26 33
58 57 56 56 55 54 53 52 50 50 50 50 49 47 45 46 43 43 45 43 45 49 49 47 49 45 51 52 51 47 46 48 44 42 39 40 41 34 35 38 38 30 30 28 30 29 35
64 62 61 59 59 59 57 56 53 53 53 54 53 52 50 48 47 47 47 46 47 47 46 48 51 51 48 55 55 50 50 51 49 49 45 44 45 38 38 40 39 35 32 25 28 29 31
69 68 67 66 65 64 63 61 59 57 56 55 56 58 56 54 52 50 49 48 49 47 49 41 35 37 41 49 53 48 54 57 53 49 50 50 44 45 43 43 42 37 35 29 26 32 34
74 74 74 73 72 71 69 67 65 63 61 59 57 58 60 61 58 56 53 52 52 49 51 40 35 36 35 32 37 44 51 56 58 54 51 52 49 47 47 48 46 40 34 36 31 33 34
79 80 80 80 79 77 75 73 71 69 66 65 64 63 62 61 62 61 60 58 54 48 49 42 43 36 33 36 31 30 35 44 56 59 55 54 51 49 53 48 47 42 36 36 34 33 31
82 83 84 83 81 79 78 76 73 72 72 71 69 69 69 66 62 63 64 63 56 52 49 45 47 42 38 35 34 32 33 32 38 49 55 57 56 55 53 51 51 39 40 37 34 35 37
79 82 82 80 80 81 80 79 77 76 77 77 75 74 75 73 63 68 66 65 59 59 49 44 45 41 34 34 36 38 36 34 32 41 43 43 47 46 46 50 49 43 37 39 35 36 37
76 79 81 83 86 87 88 86 86 85 84 85 84 82 80 79 71 75 68 65 62 62 48 45 44 44 42 36 39 38 37 36 35 36 42 43 43 40 39 44 44 39 38 38 38 36 23
76 78 81 84 87 90 94 97 98 96 92 91 92 91 90 85 78 81 79 79 73 64 51 43 48 45 42 40 39 38 34 38 39 34 36 39 43 35 40 39 39 31 39 32 24 25 26
79 82 86 91 96 100 103 104 105 103 99 96 90 92 91 86 83 85 86 84 75 64 57 50 49 46 42 42 40 39 37 39 36 37 35 35 38 35 34 37 35 30 25 24 26 30 33
81 84 87 90 93 96 100 102 104 104 103 101 97 92 89 78 81 91 89 86 73 65 61 54 48 49 45 42 42 43 41 34 35 36 32 28 36 32 37 39 38 27 26 27 28 31 34
80 83 85 86 87 88 88 88 88 92 89 89 86 95 87 85 88 83 91 85 74 67 63 58 52 51 50 47 44 44 41 34 34 32 25 26 30 32 32 34 31 29 32 28 34 32 35
74 73 69 66 66 66 68 67 66 66 66 63 80 92 90 86 96 100 97 84 73 69 64 58 53 52 52 50 46 41 33 38 35 29 25 26 30 25 25 31 26 31 25 30 33 25 29
56 56 56 57 55 56 55 55 55 56 56 59 61 86 89 87 103 90 87 80 75 70 66 61 59 56 54 50 44 39 36 39 30 34 30 26 28 27 27 26 26 25 24 24 33 34 29
51 51 51 50 51 48 47 50 50 50 53 65 68 88 94 96 70 80 81 81 83 68 64 65 64 59 56 51 48 36 36 28 32 32 29 31 30 27 32 27 29 27 25 29 28 26 33
46 46 44 42 40 42 43 43 49 54 60 61 76 78 71 82 44 78 86 77 74 62 63 58 61 57 55 52 47 31 36 35 33 31 31 37 31 30 24 35 29 26 30 28 22 27 32
42 41 40 40 39 40 40 42 53 42 56 64 56 86 52 55 70 81 82 71 70 62 59 60 59 58 53 47 44 42 45 38 42 40 39 32 29 30 28 27 28 36 23 25 28 32 26
39 38 39 40 41 44 42 37 51 51 53 64 73 62 81 42 59 66 60 81 71 78 69 69 62 56 52 42 46 46 44 49 37 42 35 39 31 29 32 32 30 26 26 29 28 26 25
38 39 38 39 39 45 41 42 51 56 53 51 75 100 54 53 44 53 59 66 80 77 78 62 55 53 50 48 48 44 45 45 40 36 27 24 23 26 27 30 33 24 20 21 26 26 27
32 37 38 38 42 45 43 43 46 50 56 54 63 78 58 53 65 54 53 63 69 78 63 58 59 43 42 49 50 49 50 43 44 40 32 31 33 30 28 29 25 22 21 22 22 20 21
37 37 36 37 41 46 44 41 48 51 62 57 62 56 72 61 46 60 59 52 61 69 68 59 49 49 44 49 49 44 44 46 43 38 35 28 27 26 23 26 24 21 18 17 24 16 18
36 36 37 37 38 46 48 47 51 51 66 61 71 62 52 70 57 53 57 60 62 59 65 61 53 47 57 58 52 48 45 44 42 39 33 29 29 30 29 26 19 23 17 18 21 23 23
33 38 38 38 37 43 40 45 56 51 51 73 61 68 50 49 48 45 52 45 58 50 59 58 57 53 56 57 54 44 38 37 36 37 36 34 32 29 26 20 18 23 18 19 21 20 23
Wind_Direction
241 242 244 244 244 246 245 241 241 246 249 253 255 252 254 252 249 251 250 251 249 249 250 251 253 254 254 255 254 253 254 258 261 266 271 278 284 289 294 300 305 309 311 311 307 311 306
244 244 244 245 248 248 247 249 248 248 248 249 251 251 260 254 259 255 255 250 252 256 253 251 253 254 256 259 259 255 260 258 260 263 268 273 276 282 289 296 298 302 306 307 308 312 307
243 244 245 248 247 248 249 252 253 253 253 253 253 252 253 259 258 258 260 257 255 252 256 257 254 254 255 258 262 254 259 261 264 267 270 270 275 280 285 284 290 298 299 303 302 309 301
245 245 246 244 246 248 249 250 252 254 256 256 257 257 257 255 256 260 260 262 262 258 254 254 255 254 255 258 258 257 255 260 260 263 266 271 274 279 282 284 289 293 298 305 305 311 313
242 243 245 246 247 247 247 247 250 253 255 258 259 259 260 261 261 259 257 259 258 263 262 259 255 254 251 254 257 257 261 261 261 260 265 269 271 275 281 281 284 288 296 301 306 311 308
243 243 242 243 245 245 246 250 251 251 253 254 257 259 263 262 262 263 263 257 260 261 262 263 259 257 255 252 256 259 258 258 261 262 263 265 267 269 275 280 284 290 297 304 305 301 292
250 247 245 245 243 244 246 246 250 254 255 257 257 257 261 265 267 267 265 263 263 264 263 262 263 262 263 257 254 255 257 258 260 261 262 261 265 271 271 276 282 289 291 297 296 286 290
253 252 250 246 245 244 244 246 249 251 254 256 258 260 259 264 266 266 268 268 268 270 262 264 272 261 259 261 257 255 255 259 259 261 260 262 270 269 268 272 277 284 286 285 272 278 283
251 252 252 252 250 249 248 246 245 248 251 253 255 258 260 261 263 266 268 270 268 268 262 260 276 269 268 252 255 253 256 256 258 261 263 264 267 269 270 271 277 280 282 281 268 269 274
251 250 251 252 253 252 252 251 249 249 250 251 252 254 256 259 260 264 266 271 270 268 270 266 265 269 265 268 265 265 254 256 255 256 259 260 263 266 270 273 274 275 278 276 273 273 281
250 250 250 251 251 252 253 252 254 253 250 251 252 253 255 255 259 261 265 267 271 268 269 267 266 269 266 266 271 271 264 254 257 255 255 260 261 263 267 267 272 276 276 277 274 271 276
250 250 250 251 251 252 252 253 252 252 253 252 251 254 254 256 256 258 260 264 264 262 262 264 267 268 263 266 270 267 272 269 258 257 253 256 258 260 264 269 270 273 272 271 269 273 270
253 253 255 257 257 257 256 257 257 257 257 256 254 253 254 252 254 256 256 256 256 256 260 259 264 265 263 260 260 269 272 270 260 259 259 261 261 261 263 265 268 271 271 270 267 267 287
258 260 260 260 260 259 258 258 257 258 258 258 256 254 251 251 249 252 251 248 247 254 254 255 256 257 259 257 259 263 267 265 267 261 258 254 252 260 260 265 271 272 269 269 270 276 261
260 262 264 264 263 262 260 256 256 255 258 258 254 250 248 248 244 246 244 245 246 250 251 251 250 253 260 261 259 262 266 265 267 261 260 257 256 254 257 256 259 265 265 277 261 243 246
265 265 266 267 267 266 264 263 261 259 258 256 248 243 241 242 239 239 240 240 242 243 247 245 245 254 257 260 263 265 265 262 264 266 259 250 255 251 252 254 259 261 259 252 243 226 235
263 265 265 265 263 262 261 260 260 259 257 251 245 237 232 228 233 229 233 236 236 236 240 241 243 249 252 252 256 261 263 257 256 257 256 249 246 242 243 247 255 258 250 249 240 225 228
261 261 260 259 259 259 258 258 257 254 252 248 242 227 225 215 219 222 229 232 230 230 237 239 240 243 246 247 249 260 260 253 250 251 258 255 244 247 237 240 240 242 243 238 238 227 228
258 255 253 253 255 256 255 254 251 247 242 231 223 217 216 215 222 228 225 229 226 227 231 234 237 244 242 244 248 253 248 247 247 240 238 245 252 250 236 243 240 243 232 225 230 230 231
247 249 252 254 254 257 253 247 243 236 223 208 220 216 210 215 219 236 227 227 226 224 224 230 232 233 236 237 242 240 240 245 242 233 243 237 249 242 236 241 240 233 215 224 218 225 236
243 246 246 250 255 250 249 242 237 217 203 203 206 208 203 220 226 222 220 227 223 222 221 227 227 233 232 233 234 234 231 236 227 229 236 242 247 243 234 229 238 232 204 207 237 231 229
242 243 248 247 243 244 242 236 224 204 213 215 200 207 209 224 227 217 217 226 211 217 223 231 223 221 226 230 228 215 230 210 226 228 246 248 242 251 237 238 219 223 229 223 231 236 249
238 242 241 239 236 235 231 226 230 212 214 210 204 207 207 230 221 219 224 225 216 214 219 209 214 219 224 230 228 222 229 234 232 245 245 236 242 245 237 228 232 235 239 240 248 255 232
240 242 237 238 229 227 229 223 217 216 202 207 206 199 218 210 220 220 222 216 220 222 212 211 213 216 216 225 228 227 227 234 233 232 237 235 233 234 230 221 231 232 239 242 247 233 244
243 240 233 232 226 227 229 219 219 217 216 210 196 208 222 195 190 215 221 212 213 216 209 214 210 217 220 227 227 225 232 233 214 214 216 220 216 222 220 223 230 232 241 246 245 246 250
238 235 230 229 223 226 222 220 221 221 217 204 192 203 214 217 218 211 220 210 211 216 202 211 206 209 216 223 226 221 226 228 212 222 224 223 226 223 223 229 241 238 234 238 251 251 252
238 236 230 226 224 224 220 223 221 211 210 202 188 195 219 223 215 216 207 205 211 208 206 206 205 208 217 223 224 220 223 219 217 220 216 219 222 223 222 226 228 234 233 237 244 246 252
234 234 229 223 222 222 221 222 217 211 210 204 185 198 193 211 209 205 199 212 209 209 209 203 202 208 207 214 220 219 221 217 220 217 210 210 217 219 220 230 238 246 237 248 252 257 260
234 230 227 222 218 224 224 224 213 202 211 211 199 194 192 201 192 201 200 211 210 210 209 202 206 204 219 221 218 205 205 214 224 226 218 227 235 225 230 230 233 236 240 243 256 258 260